Hourly Data Report for October 31, 2015

All times are specified in Local Standard Time (LST). Add 1 hour to adjust for Daylight Saving Time where and when it is observed.

CORAL HARBOUR A
NUNAVUT

64°11'36.000" N
83°21'34.000" W
62.20 m
2301002
71915
YZS

Download Data

Hourly Data (October 2015)
Hourly Data Report for October 31, 2015
Temp Definition
°C
Dew Point Temp Definition
°C
Rel Hum Definition
%
Wind Dir Definition
10's deg

Wind Spd Definition
km/h
Visibility Definition
km
Stn Press Definition
kPa
Hmdx Definition


Wind Chill Definition


Weather Definition


TIME
00:00 Legend Double Dagger -14.4 -17.1 80 1 18 24.1 100.40   -23 Snow
01:00 Legend Double Dagger -17.4 -19.6 83 35 23 24.1 100.45   -28 Snow
02:00 Legend Double Dagger -18.3 -21.0 80 34 20 24.1 100.48   -28 Snow
03:00 Legend Double Dagger -19.7 -22.2 81 34 30 24.1 100.48   -32 Snow
04:00 Legend Double Dagger -20.3 -23.1 79 34 25 24.1 100.51   -32 Clear
05:00 Legend Double Dagger -21.1 -24.0 78 33 20 24.1 100.53   -32 LegendNANA
06:00 Legend Double Dagger -21.6 -24.3 79 33 22 24.1 100.59   -33 LegendNANA
07:00 Legend Double Dagger -21.2 -23.8 80 36 15 24.1 100.62   -31 Clear
08:00 Legend Double Dagger -22.4 -25.0 80 32 17 24.1 100.64   -33 LegendNANA
09:00 Legend Double Dagger -19.6 -21.7 84 36 2 24.1 100.68   -21 LegendNANA
10:00 Legend Double Dagger -20.0 -22.3 82 35 8 24.1 100.74   -26 Clear
11:00 Legend Double Dagger -19.7 -22.5 79 33 15 24.1 100.75   -29 LegendNANA
12:00 Legend Double Dagger -18.3 -21.0 80 32 14 24.1 100.76   -27 LegendNANA
13:00 Legend Double Dagger -16.1 -18.8 80 36 14 24.1 100.77   -24 Mostly Cloudy
14:00 Legend Double Dagger -15.5 -18.1 81 1 16 24.1 100.81   -24 LegendNANA
15:00 Legend Double Dagger -14.5 -16.9 82 2 16 24.1 100.87   -23 LegendNANA
16:00 Legend Double Dagger -14.0 -16.6 81 2 14 24.1 100.92   -21 Cloudy
17:00 Legend Double Dagger -14.6 -17.2 81 2 14 24.1 100.95   -22 LegendNANA
18:00 Legend Double Dagger -15.3 -17.7 82 2 12 24.1 100.97   -22 LegendNANA
19:00 Legend Double Dagger -14.6 -16.9 83 5 13 24.1 101.02   -22 Cloudy
20:00 Legend Double Dagger -14.1 -16.4 83 5 12 24.1 101.04   -21 LegendNANA
21:00 Legend Double Dagger -15.8 -17.9 84 3 14 24.1 101.04   -24 LegendNANA
22:00 Legend Double Dagger -15.0 -17.1 84 6 10 24.1 101.05   -21 Mainly Clear
23:00 Legend Double Dagger -14.7 -17.0 83 4 13 24.1 101.05   -22 LegendNANA

Notes on Data Quality.

Legend

  • E = Estimated
  • M = Missing
  • NA = Not Available
  • ‡ = Partner data that is not subject to review by the National Climate Archives
Date modified: